Time,TemperatureF,DewpointF,PressureIn,WindDirection,WindDirectionDegrees,WindSpeedMPH,WindSpeedGustMPH,Humidity,HourlyPrecipIn,Conditions,Clouds,dailyrainin,SoftwareType,DateUTC
2013-01-04 00:01:00,26.4,22.2,30.04,SSE,160,2.0,3.0,84,0.00,,,0.00,Wunderground v.1.15,2013-01-04 05:01:00,
2013-01-04 00:02:00,26.4,22.2,30.04,North,10,3.0,3.0,84,0.00,,,0.00,Wunderground v.1.15,2013-01-04 05:02:00,
2013-01-04 00:04:00,26.4,22.2,30.04,SW,236,3.0,7.0,84,0.00,,,0.00,Wunderground v.1.15,2013-01-04 05:04:00,
2013-01-04 00:10:00,26.4,22.2,30.04,South,188,3.0,4.0,84,0.00,,,0.00,Wunderground v.1.15,2013-01-04 05:10:00,
2013-01-04 00:16:00,26.3,22.1,30.03,East,95,2.0,4.0,84,0.00,,,0.00,Wunderground v.1.15,2013-01-04 05:16:00,
2013-01-04 00:22:00,26.2,22.0,30.04,WSW,242,2.0,3.0,84,0.00,,,0.00,Wunderground v.1.15,2013-01-04 05:22:00,
2013-01-04 00:28:00,26.2,22.0,30.03,WSW,256,3.0,4.0,84,0.00,,,0.00,Wunderground v.1.15,2013-01-04 05:28:00,
2013-01-04 00:34:00,26.2,22.0,30.03,South,176,3.0,3.0,84,0.00,,,0.00,Wunderground v.1.15,2013-01-04 05:34:00,
2013-01-04 00:40:00,26.2,22.3,30.03,WSW,246,3.0,3.0,85,0.00,,,0.00,Wunderground v.1.15,2013-01-04 05:40:00,
2013-01-04 00:46:00,26.2,22.3,30.03,SSE,155,2.0,3.0,85,0.00,,,0.00,Wunderground v.1.15,2013-01-04 05:46:00,
2013-01-04 00:52:00,26.4,22.2,30.03,WNW,300,3.0,6.0,84,0.00,,,0.00,Wunderground v.1.15,2013-01-04 05:52:00,
2013-01-04 00:58:00,26.4,22.2,30.03,West,262,3.0,6.0,84,0.00,,,0.00,Wunderground v.1.15,2013-01-04 05:58:00,
2013-01-04 01:04:00,26.6,22.4,30.03,WSW,250,3.0,7.0,84,0.00,,,0.00,Wunderground v.1.15,2013-01-04 06:04:00,
2013-01-04 01:10:00,26.6,22.1,30.03,West,277,4.0,4.0,83,0.00,,,0.00,Wunderground v.1.15,2013-01-04 06:10:00,
2013-01-04 01:16:00,26.7,22.2,30.03,SW,225,4.0,12.0,83,0.00,,,0.00,Wunderground v.1.15,2013-01-04 06:16:00,
2013-01-04 01:22:00,26.9,22.4,30.03,NW,309,4.0,4.0,83,0.00,,,0.00,Wunderground v.1.15,2013-01-04 06:22:00,
2013-01-04 01:28:00,26.9,22.4,30.03,SW,235,4.0,10.0,83,0.00,,,0.00,Wunderground v.1.15,2013-01-04 06:28:00,
2013-01-04 01:34:00,26.9,22.1,30.03,WSW,243,4.0,5.0,82,0.00,,,0.00,Wunderground v.1.15,2013-01-04 06:34:00,
2013-01-04 01:40:00,26.9,22.1,30.03,WSW,240,4.0,4.0,82,0.00,,,0.00,Wunderground v.1.15,2013-01-04 06:40:00,
2013-01-04 01:46:00,26.8,21.8,30.03,SE,134,3.0,6.0,81,0.00,,,0.00,Wunderground v.1.15,2013-01-04 06:46:00,
2013-01-04 01:52:00,26.8,21.8,30.03,East,86,3.0,3.0,81,0.00,,,0.00,Wunderground v.1.15,2013-01-04 06:52:00,
2013-01-04 01:58:00,26.9,21.6,30.03,WSW,257,3.0,7.0,80,0.00,,,0.00,Wunderground v.1.15,2013-01-04 06:58:00,
2013-01-04 02:04:00,27.0,21.4,30.03,SW,235,4.0,7.0,79,0.00,,,0.00,Wunderground v.1.15,2013-01-04 07:04:00,
2013-01-04 02:10:00,27.1,21.2,30.03,SSW,205,4.0,5.0,78,0.00,,,0.00,Wunderground v.1.15,2013-01-04 07:10:00,
2013-01-04 02:16:00,27.1,21.2,30.03,WNW,290,4.0,5.0,78,0.00,,,0.00,Wunderground v.1.15,2013-01-04 07:16:00,
2013-01-04 02:22:00,27.3,21.3,30.02,SE,145,4.0,4.0,78,0.00,,,0.00,Wunderground v.1.15,2013-01-04 07:22:00,
2013-01-04 02:28:00,27.5,21.2,30.02,WNW,291,5.0,5.0,77,0.00,,,0.00,Wunderground v.1.15,2013-01-04 07:28:00,
2013-01-04 02:34:00,27.5,21.2,30.02,WSW,248,5.0,8.0,77,0.00,,,0.00,Wunderground v.1.15,2013-01-04 07:34:00,
2013-01-04 02:40:00,27.4,21.1,30.02,SW,217,4.0,4.0,77,0.00,,,0.00,Wunderground v.1.15,2013-01-04 07:40:00,
2013-01-04 02:46:00,27.2,21.2,30.03,WSW,243,3.0,6.0,78,0.00,,,0.00,Wunderground v.1.15,2013-01-04 07:46:00,
2013-01-04 02:52:00,27.0,21.1,30.03,South,181,3.0,4.0,78,0.00,,,0.00,Wunderground v.1.15,2013-01-04 07:52:00,
2013-01-04 02:58:00,26.9,21.0,30.03,SW,235,4.0,6.0,78,0.00,,,0.00,Wunderground v.1.15,2013-01-04 07:58:00,
2013-01-04 03:04:00,26.8,20.9,30.02,SE,138,4.0,5.0,78,0.00,,,0.00,Wunderground v.1.15,2013-01-04 08:04:00,
2013-01-04 03:10:00,26.7,20.8,30.02,West,266,3.0,3.0,78,0.00,,,0.00,Wunderground v.1.15,2013-01-04 08:10:00,
2013-01-04 03:16:00,26.7,20.8,30.02,WSW,253,3.0,5.0,78,0.00,,,0.00,Wunderground v.1.15,2013-01-04 08:16:00,
2013-01-04 03:22:00,26.6,20.7,30.02,SE,134,3.0,3.0,78,0.00,,,0.00,Wunderground v.1.15,2013-01-04 08:22:00,
2013-01-04 03:28:00,26.6,20.7,30.02,WNW,290,3.0,4.0,78,0.00,,,0.00,Wunderground v.1.15,2013-01-04 08:28:00,
2013-01-04 03:34:00,26.5,20.6,30.01,NNE,24,3.0,3.0,78,0.00,,,0.00,Wunderground v.1.15,2013-01-04 08:34:00,
2013-01-04 03:40:00,26.5,20.6,30.01,SW,218,3.0,3.0,78,0.00,,,0.00,Wunderground v.1.15,2013-01-04 08:40:00,
2013-01-04 03:46:00,26.4,20.8,30.02,ESE,110,3.0,5.0,79,0.00,,,0.00,Wunderground v.1.15,2013-01-04 08:46:00,
2013-01-04 03:52:00,26.7,21.1,30.02,NNW,330,4.0,6.0,79,0.00,,,0.00,Wunderground v.1.15,2013-01-04 08:52:00,
2013-01-04 03:58:00,26.7,21.1,30.02,SW,235,3.0,6.0,79,0.00,,,0.00,Wunderground v.1.15,2013-01-04 08:58:00,
2013-01-04 04:04:00,26.8,20.9,30.02,WSW,255,3.0,7.0,78,0.00,,,0.00,Wunderground v.1.15,2013-01-04 09:04:00,
2013-01-04 04:10:00,26.9,21.0,30.01,SSW,212,3.0,3.0,78,0.00,,,0.00,Wunderground v.1.15,2013-01-04 09:10:00,
2013-01-04 04:16:00,26.9,21.0,30.01,NW,316,2.0,6.0,78,0.00,,,0.00,Wunderground v.1.15,2013-01-04 09:16:00,
2013-01-04 04:22:00,27.1,20.8,30.01,WSW,250,4.0,5.0,77,0.00,,,0.00,Wunderground v.1.15,2013-01-04 09:22:00,
2013-01-04 04:28:00,27.1,20.8,30.01,SW,217,4.0,5.0,77,0.00,,,0.00,Wunderground v.1.15,2013-01-04 09:28:00,
2013-01-04 04:34:00,27.2,20.9,30.00,SSE,153,4.0,4.0,77,0.00,,,0.00,Wunderground v.1.15,2013-01-04 09:34:00,
2013-01-04 04:40:00,27.2,20.9,30.00,WSW,240,4.0,4.0,77,0.00,,,0.00,Wunderground v.1.15,2013-01-04 09:40:00,
2013-01-04 04:46:00,27.2,20.9,29.99,WSW,258,4.0,6.0,77,0.00,,,0.00,Wunderground v.1.15,2013-01-04 09:46:00,
2013-01-04 04:52:00,27.3,21.0,29.99,WSW,241,4.0,6.0,77,0.00,,,0.00,Wunderground v.1.15,2013-01-04 09:52:00,
2013-01-04 04:58:00,27.3,21.0,29.99,SW,214,5.0,6.0,77,0.00,,,0.00,Wunderground v.1.15,2013-01-04 09:58:00,
2013-01-04 05:04:00,27.4,21.1,29.99,West,274,6.0,6.0,77,0.00,,,0.00,Wunderground v.1.15,2013-01-04 10:04:00,
2013-01-04 05:10:00,27.4,21.4,29.99,SSW,200,5.0,5.0,78,0.00,,,0.00,Wunderground v.1.15,2013-01-04 10:10:00,
2013-01-04 05:16:00,27.3,21.6,29.99,West,271,4.0,5.0,79,0.00,,,0.00,Wunderground v.1.15,2013-01-04 10:16:00,
2013-01-04 05:22:00,27.3,21.6,29.99,WSW,241,3.0,6.0,79,0.00,,,0.00,Wunderground v.1.15,2013-01-04 10:22:00,
2013-01-04 05:28:00,27.4,21.7,30.00,SSW,210,3.0,6.0,79,0.00,,,0.00,Wunderground v.1.15,2013-01-04 10:28:00,
2013-01-04 05:34:00,27.5,22.1,30.00,WSW,248,4.0,6.0,80,0.00,,,0.00,Wunderground v.1.15,2013-01-04 10:34:00,
2013-01-04 05:40:00,27.5,22.1,30.00,SW,218,3.0,6.0,80,0.00,,,0.00,Wunderground v.1.15,2013-01-04 10:40:00,
2013-01-04 05:46:00,27.5,22.1,30.00,SSW,208,3.0,6.0,80,0.00,,,0.00,Wunderground v.1.15,2013-01-04 10:46:00,
2013-01-04 05:52:00,27.5,22.1,29.98,SW,229,4.0,9.0,80,0.00,,,0.00,Wunderground v.1.15,2013-01-04 10:52:00,
2013-01-04 05:58:00,27.5,22.1,29.99,West,260,4.0,9.0,80,0.00,,,0.00,Wunderground v.1.15,2013-01-04 10:58:00,
2013-01-04 06:04:00,27.7,22.3,29.98,SSW,201,4.0,5.0,80,0.00,,,0.00,Wunderground v.1.15,2013-01-04 11:04:00,
2013-01-04 06:10:00,28.0,22.6,29.98,SW,232,4.0,5.0,80,0.00,,,0.00,Wunderground v.1.15,2013-01-04 11:10:00,
2013-01-04 06:16:00,28.7,23.3,29.98,WSW,238,4.0,7.0,80,0.00,,,0.00,Wunderground v.1.15,2013-01-04 11:16:00,
2013-01-04 06:22:00,29.6,23.9,29.98,South,186,5.0,5.0,79,0.00,,,0.00,Wunderground v.1.15,2013-01-04 11:22:00,
2013-01-04 06:28:00,30.2,23.9,29.97,WSW,253,7.0,14.0,77,0.00,,,0.00,Wunderground v.1.15,2013-01-04 11:28:00,
2013-01-04 06:34:00,30.4,23.7,29.97,WSW,256,7.0,8.0,76,0.00,,,0.00,Wunderground v.1.15,2013-01-04 11:34:00,
2013-01-04 06:40:00,30.6,23.9,29.97,ESE,110,5.0,5.0,76,0.00,,,0.00,Wunderground v.1.15,2013-01-04 11:40:00,
2013-01-04 06:46:00,30.8,24.4,29.97,WSW,250,6.0,10.0,77,0.00,,,0.00,Wunderground v.1.15,2013-01-04 11:46:00,
2013-01-04 06:52:00,31.1,24.7,29.97,South,191,5.0,6.0,77,0.00,,,0.00,Wunderground v.1.15,2013-01-04 11:52:00,
2013-01-04 06:58:00,31.4,25.0,29.97,SSE,158,5.0,12.0,77,0.00,,,0.00,Wunderground v.1.15,2013-01-04 11:58:00,
2013-01-04 07:04:00,31.7,25.3,29.98,SSW,210,6.0,11.0,77,0.00,,,0.00,Wunderground v.1.15,2013-01-04 12:04:00,
2013-01-04 07:10:00,31.9,25.5,29.97,ESE,122,7.0,7.0,77,0.00,,,0.00,Wunderground v.1.15,2013-01-04 12:10:00,
2013-01-04 07:16:00,32.1,25.4,29.97,West,259,7.0,11.0,76,0.00,,,0.00,Wunderground v.1.15,2013-01-04 12:16:00,
2013-01-04 07:22:00,32.1,25.4,29.97,SW,214,6.0,7.0,76,0.00,,,0.00,Wunderground v.1.15,2013-01-04 12:22:00,
2013-01-04 07:28:00,32.2,25.5,29.98,West,263,7.0,14.0,76,0.00,,,0.00,Wunderground v.1.15,2013-01-04 12:28:00,
2013-01-04 07:34:00,32.4,25.7,29.98,West,273,7.0,10.0,76,0.00,,,0.00,Wunderground v.1.15,2013-01-04 12:34:00,
2013-01-04 07:40:00,32.4,26.0,29.97,SSW,212,8.0,8.0,77,0.00,,,0.00,Wunderground v.1.15,2013-01-04 12:40:00,
2013-01-04 07:46:00,32.4,26.0,29.96,East,87,8.0,8.0,77,0.00,,,0.00,Wunderground v.1.15,2013-01-04 12:46:00,
2013-01-04 07:52:00,32.3,25.9,29.96,SW,217,8.0,13.0,77,0.00,,,0.00,Wunderground v.1.15,2013-01-04 12:52:00,
2013-01-04 07:58:00,32.3,25.9,29.96,West,263,9.0,13.0,77,0.00,,,0.00,Wunderground v.1.15,2013-01-04 12:58:00,
2013-01-04 08:04:00,32.2,25.5,29.96,South,191,7.0,11.0,76,0.00,,,0.00,Wunderground v.1.15,2013-01-04 13:04:00,
2013-01-04 08:10:00,32.1,25.4,29.96,SSE,158,8.0,8.0,76,0.00,,,0.00,Wunderground v.1.15,2013-01-04 13:10:00,
2013-01-04 08:16:00,32.1,25.1,29.96,SW,219,8.0,8.0,75,0.00,,,0.00,Wunderground v.1.15,2013-01-04 13:16:00,
2013-01-04 08:22:00,32.1,25.4,29.97,WSW,252,7.0,12.0,76,0.00,,,0.00,Wunderground v.1.15,2013-01-04 13:22:00,
2013-01-04 08:28:00,32.3,25.6,29.96,SW,214,8.0,13.0,76,0.00,,,0.00,Wunderground v.1.15,2013-01-04 13:28:00,
2013-01-04 08:34:00,32.4,25.4,29.96,SW,228,8.0,10.0,75,0.00,,,0.00,Wunderground v.1.15,2013-01-04 13:34:00,
2013-01-04 08:40:00,32.6,25.6,29.97,WSW,249,8.0,10.0,75,0.00,,,0.00,Wunderground v.1.15,2013-01-04 13:40:00,
2013-01-04 08:46:00,32.6,25.6,29.97,NW,307,8.0,10.0,75,0.00,,,0.00,Wunderground v.1.15,2013-01-04 13:46:00,
2013-01-04 08:52:00,32.7,26.0,29.97,West,273,8.0,10.0,76,0.00,,,0.00,Wunderground v.1.15,2013-01-04 13:52:00,
2013-01-04 08:58:00,32.8,26.1,29.97,SSW,203,6.0,10.0,76,0.00,,,0.00,Wunderground v.1.15,2013-01-04 13:58:00,
2013-01-04 09:04:00,32.8,26.1,29.97,SW,229,6.0,10.0,76,0.00,,,0.00,Wunderground v.1.15,2013-01-04 14:04:00,
2013-01-04 09:10:00,32.9,26.5,29.96,South,180,8.0,11.0,77,0.00,,,0.00,Wunderground v.1.15,2013-01-04 14:10:00,
2013-01-04 09:16:00,33.0,26.3,29.98,WSW,243,8.0,11.0,76,0.00,,,0.00,Wunderground v.1.15,2013-01-04 14:16:00,
2013-01-04 09:22:00,33.1,26.7,29.97,NNW,333,8.0,8.0,77,0.00,,,0.00,Wunderground v.1.15,2013-01-04 14:22:00,
2013-01-04 09:28:00,33.1,26.7,29.97,NE,50,7.0,8.0,77,0.00,,,0.00,Wunderground v.1.15,2013-01-04 14:28:00,
2013-01-04 09:34:00,33.1,26.7,29.96,WSW,253,9.0,18.0,77,0.00,,,0.00,Wunderground v.1.15,2013-01-04 14:34:00,
2013-01-04 09:40:00,33.2,26.8,29.96,WNW,289,8.0,8.0,77,0.00,,,0.00,Wunderground v.1.15,2013-01-04 14:40:00,
2013-01-04 09:46:00,33.2,26.8,29.96,WNW,294,8.0,8.0,77,0.00,,,0.00,Wunderground v.1.15,2013-01-04 14:46:00,
2013-01-04 09:52:00,33.2,26.5,29.96,SSW,205,8.0,8.0,76,0.00,,,0.00,Wunderground v.1.15,2013-01-04 14:52:00,
2013-01-04 09:58:00,33.2,26.8,29.96,SW,229,8.0,13.0,77,0.00,,,0.00,Wunderground v.1.15,2013-01-04 14:58:00,
2013-01-04 10:04:00,33.1,26.7,29.96,WSW,253,10.0,11.0,77,0.00,,,0.00,Wunderground v.1.15,2013-01-04 15:04:00,
2013-01-04 10:10:00,32.9,26.2,29.96,WSW,248,10.0,10.0,76,0.00,,,0.00,Wunderground v.1.15,2013-01-04 15:10:00,
2013-01-04 10:16:00,32.9,26.5,29.97,East,82,9.0,19.0,77,0.00,,,0.00,Wunderground v.1.15,2013-01-04 15:16:00,
2013-01-04 10:22:00,32.9,26.5,29.96,WNW,297,9.0,15.0,77,0.00,,,0.00,Wunderground v.1.15,2013-01-04 15:22:00,
2013-01-04 10:28:00,33.0,26.3,29.96,South,191,9.0,15.0,76,0.00,,,0.00,Wunderground v.1.15,2013-01-04 15:28:00,
2013-01-04 10:34:00,33.1,26.7,29.96,WSW,250,10.0,15.0,77,0.00,,,0.00,Wunderground v.1.15,2013-01-04 15:34:00,
2013-01-04 10:40:00,33.0,26.6,29.95,WNW,283,10.0,10.0,77,0.00,,,0.00,Wunderground v.1.15,2013-01-04 15:40:00,
2013-01-04 10:46:00,32.9,26.8,29.95,SSE,154,9.0,10.0,78,0.00,,,0.00,Wunderground v.1.15,2013-01-04 15:46:00,
2013-01-04 10:52:00,32.9,26.8,29.94,WSW,243,8.0,9.0,78,0.00,,,0.00,Wunderground v.1.15,2013-01-04 15:52:00,
2013-01-04 10:58:00,32.7,26.6,29.95,South,179,9.0,14.0,78,0.00,,,0.00,Wunderground v.1.15,2013-01-04 15:58:00,
2013-01-04 11:04:00,32.6,26.5,29.94,WSW,257,9.0,17.0,78,0.00,,,0.00,Wunderground v.1.15,2013-01-04 16:04:00,
2013-01-04 11:10:00,32.5,26.7,29.94,WSW,251,9.0,11.0,79,0.00,,,0.00,Wunderground v.1.15,2013-01-04 16:10:00,
2013-01-04 11:16:00,32.4,26.6,29.94,WSW,248,10.0,12.0,79,0.00,,,0.00,Wunderground v.1.15,2013-01-04 16:16:00,
2013-01-04 11:22:00,32.2,26.4,29.95,SSW,200,9.0,10.0,79,0.00,,,0.00,Wunderground v.1.15,2013-01-04 16:22:00,
2013-01-04 11:28:00,32.1,26.0,29.94,NE,55,9.0,11.0,78,0.00,,,0.00,Wunderground v.1.15,2013-01-04 16:28:00,
2013-01-04 11:34:00,32.1,26.0,29.94,SSW,210,8.0,13.0,78,0.00,,,0.00,Wunderground v.1.15,2013-01-04 16:34:00,
2013-01-04 11:40:00,31.9,26.4,29.94,WSW,245,9.0,9.0,80,0.00,,,0.00,Wunderground v.1.15,2013-01-04 16:40:00,
2013-01-04 11:46:00,31.8,26.0,29.94,WSW,240,10.0,13.0,79,0.00,,,0.00,Wunderground v.1.15,2013-01-04 16:46:00,
2013-01-04 11:52:00,31.7,26.2,29.94,South,190,10.0,12.0,80,0.00,,,0.00,Wunderground v.1.15,2013-01-04 16:52:00,
2013-01-04 11:58:00,31.7,26.2,29.93,South,172,9.0,12.0,80,0.00,,,0.00,Wunderground v.1.15,2013-01-04 16:58:00,
2013-01-04 12:04:00,31.8,26.0,29.92,WSW,256,10.0,14.0,79,0.00,,,0.00,Wunderground v.1.15,2013-01-04 17:04:00,
2013-01-04 12:10:00,31.8,25.7,29.92,NNW,344,8.0,8.0,78,0.00,,,0.00,Wunderground v.1.15,2013-01-04 17:10:00,
2013-01-04 12:16:00,31.9,25.5,29.91,South,187,8.0,14.0,77,0.00,,,0.00,Wunderground v.1.15,2013-01-04 17:16:00,
2013-01-04 12:22:00,31.8,26.0,29.91,WSW,238,10.0,14.0,79,0.00,,,0.00,Wunderground v.1.15,2013-01-04 17:22:00,
2013-01-04 12:28:00,31.9,26.1,29.91,WSW,256,11.0,24.0,79,0.00,,,0.00,Wunderground v.1.15,2013-01-04 17:28:00,
2013-01-04 12:34:00,31.9,25.8,29.91,NE,39,10.0,13.0,78,0.00,,,0.00,Wunderground v.1.15,2013-01-04 17:34:00,
2013-01-04 12:40:00,31.9,25.5,29.92,WNW,290,10.0,10.0,77,0.00,,,0.00,Wunderground v.1.15,2013-01-04 17:40:00,
2013-01-04 12:46:00,31.9,25.8,29.91,WSW,252,11.0,11.0,78,0.00,,,0.00,Wunderground v.1.15,2013-01-04 17:46:00,
2013-01-04 12:52:00,31.8,25.7,29.92,West,266,9.0,11.0,78,0.00,,,0.00,Wunderground v.1.15,2013-01-04 17:52:00,
2013-01-04 12:58:00,31.7,25.6,29.91,ESE,122,8.0,23.0,78,0.00,,,0.00,Wunderground v.1.15,2013-01-04 17:58:00,
2013-01-04 13:04:00,31.7,25.6,29.90,WSW,256,10.0,10.0,78,0.00,,,0.00,Wunderground v.1.15,2013-01-04 18:04:00,
2013-01-04 13:10:00,31.6,25.8,29.90,SSW,199,9.0,9.0,79,0.00,,,0.00,Wunderground v.1.15,2013-01-04 18:10:00,
2013-01-04 13:16:00,31.7,25.9,29.90,SSE,167,9.0,13.0,79,0.00,,,0.00,Wunderground v.1.15,2013-01-04 18:16:00,
2013-01-04 13:22:00,31.6,26.1,29.90,West,267,9.0,9.0,80,0.00,,,0.00,Wunderground v.1.15,2013-01-04 18:22:00,
2013-01-04 13:28:00,31.6,25.8,29.90,WSW,246,6.0,10.0,79,0.00,,,0.00,Wunderground v.1.15,2013-01-04 18:28:00,
2013-01-04 13:34:00,31.4,25.6,29.90,SW,226,7.0,11.0,79,0.00,,,0.00,Wunderground v.1.15,2013-01-04 18:34:00,
2013-01-04 13:40:00,31.3,25.5,29.90,West,278,8.0,9.0,79,0.00,,,0.00,Wunderground v.1.15,2013-01-04 18:40:00,
2013-01-04 13:46:00,31.3,25.5,29.90,SW,228,9.0,9.0,79,0.00,,,0.00,Wunderground v.1.15,2013-01-04 18:46:00,
2013-01-04 13:52:00,31.3,25.5,29.90,West,281,9.0,9.0,79,0.00,,,0.00,Wunderground v.1.15,2013-01-04 18:52:00,
2013-01-04 13:58:00,31.4,25.6,29.89,WSW,240,8.0,15.0,79,0.00,,,0.00,Wunderground v.1.15,2013-01-04 18:58:00,
2013-01-04 14:04:00,31.5,25.4,29.89,WNW,299,10.0,10.0,78,0.00,,,0.00,Wunderground v.1.15,2013-01-04 19:04:00,
2013-01-04 14:10:00,31.5,25.4,29.89,NW,306,9.0,10.0,78,0.00,,,0.00,Wunderground v.1.15,2013-01-04 19:10:00,
2013-01-04 14:16:00,31.4,25.3,29.90,NW,306,8.0,14.0,78,0.00,,,0.00,Wunderground v.1.15,2013-01-04 19:16:00,
2013-01-04 14:22:00,31.4,25.3,29.89,NNW,340,10.0,11.0,78,0.00,,,0.00,Wunderground v.1.15,2013-01-04 19:22:00,
2013-01-04 14:28:00,31.3,25.2,29.90,ESE,102,9.0,11.0,78,0.00,,,0.00,Wunderground v.1.15,2013-01-04 19:28:00,
2013-01-04 14:34:00,31.4,25.6,29.89,WNW,285,8.0,9.0,79,0.00,,,0.00,Wunderground v.1.15,2013-01-04 19:34:00,
2013-01-04 14:40:00,31.5,25.4,29.90,WSW,238,9.0,10.0,78,0.00,,,0.00,Wunderground v.1.15,2013-01-04 19:40:00,
2013-01-04 14:46:00,31.5,25.1,29.90,WNW,287,9.0,10.0,77,0.00,,,0.00,Wunderground v.1.15,2013-01-04 19:46:00,
2013-01-04 14:52:00,31.5,25.1,29.90,SSE,152,9.0,13.0,77,0.00,,,0.00,Wunderground v.1.15,2013-01-04 19:52:00,
2013-01-04 14:58:00,31.7,25.0,29.90,WSW,250,9.0,13.0,76,0.00,,,0.00,Wunderground v.1.15,2013-01-04 19:58:00,
2013-01-04 15:04:00,31.7,25.3,29.91,SW,228,9.0,15.0,77,0.00,,,0.00,Wunderground v.1.15,2013-01-04 20:04:00,
2013-01-04 15:10:00,31.6,25.2,29.91,West,262,8.0,9.0,77,0.00,,,0.00,Wunderground v.1.15,2013-01-04 20:10:00,
2013-01-04 15:16:00,31.8,25.4,29.91,SW,233,8.0,12.0,77,0.00,,,0.00,Wunderground v.1.15,2013-01-04 20:16:00,
2013-01-04 15:22:00,31.9,25.2,29.91,SW,228,8.0,9.0,76,0.00,,,0.00,Wunderground v.1.15,2013-01-04 20:22:00,
2013-01-04 15:28:00,31.8,25.1,29.91,NNW,340,9.0,9.0,76,0.00,,,0.00,Wunderground v.1.15,2013-01-04 20:28:00,
2013-01-04 15:34:00,31.8,25.1,29.91,SSW,203,8.0,11.0,76,0.00,,,0.00,Wunderground v.1.15,2013-01-04 20:34:00,
2013-01-04 15:40:00,31.9,25.2,29.91,SW,215,8.0,10.0,76,0.00,,,0.00,Wunderground v.1.15,2013-01-04 20:40:00,
2013-01-04 15:46:00,32.0,25.0,29.91,WSW,253,9.0,10.0,75,0.00,,,0.00,Wunderground v.1.15,2013-01-04 20:46:00,
2013-01-04 15:52:00,31.9,25.2,29.91,WSW,244,8.0,8.0,76,0.00,,,0.00,Wunderground v.1.15,2013-01-04 20:52:00,
2013-01-04 15:58:00,31.8,25.4,29.91,NW,309,7.0,8.0,77,0.00,,,0.00,Wunderground v.1.15,2013-01-04 20:58:00,
2013-01-04 16:04:00,31.7,25.3,29.91,South,172,8.0,14.0,77,0.00,,,0.00,Wunderground v.1.15,2013-01-04 21:04:00,
2013-01-04 16:10:00,31.7,25.9,29.91,NNE,12,7.0,11.0,79,0.00,,,0.00,Wunderground v.1.15,2013-01-04 21:10:00,
2013-01-04 16:28:00,31.7,25.6,29.92,WNW,290,7.0,7.0,78,0.00,,,0.00,Wunderground v.1.15,2013-01-04 21:28:00,
2013-01-04 16:34:00,31.7,25.6,29.92,SSW,200,8.0,11.0,78,0.00,,,0.00,Wunderground v.1.15,2013-01-04 21:34:00,
2013-01-04 16:40:00,31.6,25.5,29.91,WSW,251,6.0,9.0,78,0.00,,,0.00,Wunderground v.1.15,2013-01-04 21:40:00,
2013-01-04 16:46:00,31.6,25.8,29.92,South,184,7.0,9.0,79,0.00,,,0.00,Wunderground v.1.15,2013-01-04 21:46:00,
2013-01-04 16:52:00,31.7,25.6,29.92,SW,224,8.0,11.0,78,0.00,,,0.00,Wunderground v.1.15,2013-01-04 21:52:00,
2013-01-04 16:58:00,31.6,25.2,29.92,NE,50,8.0,8.0,77,0.00,,,0.00,Wunderground v.1.15,2013-01-04 21:58:00,
2013-01-04 17:04:00,31.5,25.4,29.92,SE,134,7.0,11.0,78,0.00,,,0.00,Wunderground v.1.15,2013-01-04 22:04:00,
2013-01-04 17:10:00,31.5,25.4,29.92,WSW,244,6.0,6.0,78,0.00,,,0.00,Wunderground v.1.15,2013-01-04 22:10:00,
2013-01-04 17:16:00,31.6,25.5,29.93,South,174,7.0,12.0,78,0.00,,,0.00,Wunderground v.1.15,2013-01-04 22:16:00,
2013-01-04 17:22:00,31.5,25.4,29.94,SSW,210,8.0,11.0,78,0.00,,,0.00,Wunderground v.1.15,2013-01-04 22:22:00,
2013-01-04 17:28:00,31.5,25.4,29.94,NNE,15,5.0,11.0,78,0.00,,,0.00,Wunderground v.1.15,2013-01-04 22:28:00,
2013-01-04 17:34:00,31.5,25.4,29.95,NE,51,5.0,5.0,78,0.00,,,0.00,Wunderground v.1.15,2013-01-04 22:34:00,
2013-01-04 17:40:00,31.5,25.4,29.95,NW,319,6.0,8.0,78,0.00,,,0.00,Wunderground v.1.15,2013-01-04 22:40:00,
2013-01-04 17:46:00,31.5,25.4,29.95,South,180,6.0,8.0,78,0.00,,,0.00,Wunderground v.1.15,2013-01-04 22:46:00,
2013-01-04 17:52:00,31.4,25.3,29.95,SW,235,7.0,10.0,78,0.00,,,0.00,Wunderground v.1.15,2013-01-04 22:52:00,
2013-01-04 17:58:00,31.4,25.6,29.95,ENE,70,8.0,10.0,79,0.00,,,0.00,Wunderground v.1.15,2013-01-04 22:58:00,
2013-01-04 18:04:00,31.3,25.5,29.96,WNW,301,7.0,9.0,79,0.00,,,0.00,Wunderground v.1.15,2013-01-04 23:04:00,
2013-01-04 18:10:00,31.3,25.8,29.95,WSW,249,6.0,6.0,80,0.00,,,0.00,Wunderground v.1.15,2013-01-04 23:10:00,
2013-01-04 18:16:00,31.2,25.7,29.96,SW,218,5.0,10.0,80,0.00,,,0.00,Wunderground v.1.15,2013-01-04 23:16:00,
2013-01-04 18:22:00,31.2,25.4,29.96,SW,229,6.0,7.0,79,0.00,,,0.00,Wunderground v.1.15,2013-01-04 23:22:00,
2013-01-04 18:28:00,31.0,25.2,29.97,SW,231,6.0,15.0,79,0.00,,,0.00,Wunderground v.1.15,2013-01-04 23:28:00,
2013-01-04 18:34:00,31.0,25.6,29.97,SW,214,6.0,7.0,80,0.00,,,0.00,Wunderground v.1.15,2013-01-04 23:34:00,
2013-01-04 18:40:00,30.9,25.5,29.97,SSW,194,5.0,6.0,80,0.00,,,0.00,Wunderground v.1.15,2013-01-04 23:40:00,
2013-01-04 18:46:00,30.8,25.4,29.97,WSW,245,4.0,6.0,80,0.00,,,0.00,Wunderground v.1.15,2013-01-04 23:46:00,
2013-01-04 18:52:00,30.7,25.3,29.98,WSW,257,4.0,6.0,80,0.00,,,0.00,Wunderground v.1.15,2013-01-04 23:52:00,
2013-01-04 18:58:00,30.6,25.2,29.98,WSW,256,4.0,7.0,80,0.00,,,0.00,Wunderground v.1.15,2013-01-04 23:58:00,
2013-01-04 19:04:00,30.7,25.3,29.98,NW,316,6.0,6.0,80,0.00,,,0.00,Wunderground v.1.15,2013-01-05 00:04:00,
2013-01-04 19:10:00,30.7,25.3,29.98,WNW,302,6.0,7.0,80,0.00,,,0.00,Wunderground v.1.15,2013-01-05 00:10:00,
2013-01-04 19:16:00,30.6,25.2,29.98,SSE,148,5.0,7.0,80,0.00,,,0.00,Wunderground v.1.15,2013-01-05 00:16:00,
2013-01-04 19:22:00,30.6,25.2,29.98,SSW,201,5.0,6.0,80,0.00,,,0.00,Wunderground v.1.15,2013-01-05 00:22:00,
2013-01-04 19:28:00,30.6,25.2,29.99,SW,217,5.0,6.0,80,0.00,,,0.00,Wunderground v.1.15,2013-01-05 00:28:00,
2013-01-04 19:34:00,30.6,25.2,29.99,WSW,245,6.0,8.0,80,0.00,,,0.00,Wunderground v.1.15,2013-01-05 00:34:00,
2013-01-04 19:40:00,30.7,25.3,29.99,NNW,330,5.0,5.0,80,0.00,,,0.00,Wunderground v.1.15,2013-01-05 00:40:00,
2013-01-04 19:46:00,30.6,24.9,29.99,SSW,203,4.0,6.0,79,0.00,,,0.00,Wunderground v.1.15,2013-01-05 00:46:00,
2013-01-04 19:52:00,30.7,25.0,30.00,SW,235,5.0,5.0,79,0.00,,,0.00,Wunderground v.1.15,2013-01-05 00:52:00,
2013-01-04 19:58:00,30.7,25.0,30.00,West,266,4.0,5.0,79,0.00,,,0.00,Wunderground v.1.15,2013-01-05 00:58:00,
2013-01-04 20:04:00,30.7,25.0,30.00,South,179,4.0,4.0,79,0.00,,,0.00,Wunderground v.1.15,2013-01-05 01:04:00,
2013-01-04 20:10:00,30.8,25.1,30.00,SSE,162,5.0,6.0,79,0.00,,,0.00,Wunderground v.1.15,2013-01-05 01:10:00,
2013-01-04 20:16:00,30.9,25.2,30.00,South,172,6.0,7.0,79,0.00,,,0.00,Wunderground v.1.15,2013-01-05 01:16:00,
2013-01-04 20:22:00,30.9,25.2,30.00,WSW,250,6.0,10.0,79,0.00,,,0.00,Wunderground v.1.15,2013-01-05 01:22:00,
2013-01-04 20:28:00,30.9,25.2,30.00,WSW,237,5.0,10.0,79,0.00,,,0.00,Wunderground v.1.15,2013-01-05 01:28:00,
2013-01-04 20:34:00,30.9,25.2,30.01,SSW,205,4.0,6.0,79,0.00,,,0.00,Wunderground v.1.15,2013-01-05 01:34:00,
2013-01-04 20:40:00,30.9,25.2,30.01,SW,229,5.0,9.0,79,0.00,,,0.00,Wunderground v.1.15,2013-01-05 01:40:00,
2013-01-04 20:46:00,30.9,25.2,30.00,SSE,165,5.0,9.0,79,0.00,,,0.00,Wunderground v.1.15,2013-01-05 01:46:00,
2013-01-04 20:52:00,30.9,25.2,30.00,SW,214,5.0,7.0,79,0.00,,,0.00,Wunderground v.1.15,2013-01-05 01:52:00,
2013-01-04 20:58:00,30.9,25.2,30.01,WSW,244,6.0,7.0,79,0.00,,,0.00,Wunderground v.1.15,2013-01-05 01:58:00,
2013-01-04 21:04:00,31.0,25.2,30.00,WSW,238,5.0,7.0,79,0.00,,,0.00,Wunderground v.1.15,2013-01-05 02:04:00,
2013-01-04 21:10:00,31.0,24.9,30.01,WSW,238,5.0,5.0,78,0.00,,,0.00,Wunderground v.1.15,2013-01-05 02:10:00,
2013-01-04 21:16:00,31.0,25.2,30.01,South,170,6.0,7.0,79,0.00,,,0.00,Wunderground v.1.15,2013-01-05 02:16:00,
2013-01-04 21:22:00,31.0,25.2,30.01,SSW,194,6.0,6.0,79,0.00,,,0.00,Wunderground v.1.15,2013-01-05 02:22:00,
2013-01-04 21:28:00,31.0,24.9,30.02,SSW,195,5.0,13.0,78,0.00,,,0.00,Wunderground v.1.15,2013-01-05 02:28:00,
2013-01-04 21:34:00,31.0,24.9,30.02,South,184,6.0,8.0,78,0.00,,,0.00,Wunderground v.1.15,2013-01-05 02:34:00,
2013-01-04 21:40:00,31.0,24.6,30.02,SSW,195,6.0,7.0,77,0.00,,,0.00,Wunderground v.1.15,2013-01-05 02:40:00,
2013-01-04 21:46:00,31.0,24.6,30.02,WSW,248,6.0,7.0,77,0.00,,,0.00,Wunderground v.1.15,2013-01-05 02:46:00,
2013-01-04 21:52:00,31.0,24.6,30.02,West,270,5.0,10.0,77,0.00,,,0.00,Wunderground v.1.15,2013-01-05 02:52:00,
2013-01-04 21:58:00,31.0,24.6,30.03,South,179,6.0,10.0,77,0.00,,,0.00,Wunderground v.1.15,2013-01-05 02:58:00,
2013-01-04 22:04:00,30.9,24.5,30.03,SSW,210,7.0,7.0,77,0.00,,,0.00,Wunderground v.1.15,2013-01-05 03:04:00,
2013-01-04 22:10:00,30.9,24.5,30.04,WSW,258,6.0,6.0,77,0.00,,,0.00,Wunderground v.1.15,2013-01-05 03:10:00,
2013-01-04 22:16:00,30.8,24.4,30.04,SW,222,5.0,7.0,77,0.00,,,0.00,Wunderground v.1.15,2013-01-05 03:16:00,
2013-01-04 22:22:00,30.7,24.0,30.04,NNW,335,6.0,10.0,76,0.00,,,0.00,Wunderground v.1.15,2013-01-05 03:22:00,
2013-01-04 22:28:00,30.6,23.9,30.04,SSW,197,6.0,10.0,76,0.00,,,0.00,Wunderground v.1.15,2013-01-05 03:28:00,
2013-01-04 22:34:00,30.5,23.8,30.04,WNW,302,6.0,9.0,76,0.00,,,0.00,Wunderground v.1.15,2013-01-05 03:34:00,
2013-01-04 22:40:00,30.5,23.8,30.05,South,187,5.0,5.0,76,0.00,,,0.00,Wunderground v.1.15,2013-01-05 03:40:00,
2013-01-04 22:46:00,30.4,24.1,30.05,SSW,197,4.0,6.0,77,0.00,,,0.00,Wunderground v.1.15,2013-01-05 03:46:00,
2013-01-04 22:52:00,30.3,24.0,30.05,WSW,238,5.0,9.0,77,0.00,,,0.00,Wunderground v.1.15,2013-01-05 03:52:00,
2013-01-04 22:58:00,30.3,24.0,30.05,NW,307,6.0,9.0,77,0.00,,,0.00,Wunderground v.1.15,2013-01-05 03:58:00,
2013-01-04 23:04:00,30.2,23.9,30.05,SSW,205,6.0,6.0,77,0.00,,,0.00,Wunderground v.1.15,2013-01-05 04:04:00,
2013-01-04 23:10:00,30.2,23.9,30.05,WSW,251,5.0,6.0,77,0.00,,,0.00,Wunderground v.1.15,2013-01-05 04:10:00,
2013-01-04 23:16:00,30.2,23.9,30.05,SSW,207,5.0,6.0,77,0.00,,,0.00,Wunderground v.1.15,2013-01-05 04:16:00,
2013-01-04 23:22:00,30.3,24.3,30.05,South,184,5.0,9.0,78,0.00,,,0.00,Wunderground v.1.15,2013-01-05 04:22:00,
2013-01-04 23:28:00,30.3,24.3,30.06,WSW,240,5.0,9.0,78,0.00,,,0.00,Wunderground v.1.15,2013-01-05 04:28:00,
2013-01-04 23:34:00,30.2,24.2,30.06,SW,225,5.0,6.0,78,0.00,,,0.00,Wunderground v.1.15,2013-01-05 04:34:00,
2013-01-04 23:40:00,30.2,24.2,30.06,SSW,204,4.0,4.0,78,0.00,,,0.00,Wunderground v.1.15,2013-01-05 04:40:00,
2013-01-04 23:46:00,30.2,24.2,30.06,WSW,246,4.0,5.0,78,0.00,,,0.00,Wunderground v.1.15,2013-01-05 04:46:00,
2013-01-04 23:52:00,30.2,24.2,30.06,SW,224,5.0,5.0,78,0.00,,,0.00,Wunderground v.1.15,2013-01-05 04:52:00,
2013-01-04 23:58:00,30.1,24.1,30.06,South,176,5.0,5.0,78,0.00,,,0.00,Wunderground v.1.15,2013-01-05 04:58:00,